Flag for Germany Weather past 2 weeks in Bramsche, Lower Saxony, Germany

Now
48 °F

Drizzle. Low clouds.


Feels Like: 44 °F
Forecast: 48 / 50 °F
Wind: 10 mph from Southwest

Location: Muenster / Osnabrueck

Current Time: Dec 22, 2014 at 8:24:54 AM

Latest Report: Dec 22, 2014 at 8:00 AM


Visibility: 5 mi

Pressure: 29.99 "Hg

Humidity: 92%

Dew point: 46 °F

Location of BramscheLocation

Historic Weather in Bramsche — Graph

°F

Bramsche temperature yesterday

Maximum temperature yesterday: 47 °F (at 10:00 PM)
Minimum temperature yesterday: 38 °F (at 3:00 AM)
Average temperature yesterday: 43 °F

Past Weeks' High & Low Weather Summary

 TemperatureHumidityPressure
High54 °F (Dec 18, 7:00 PM)97% (Dec 14, 2:00 AM)30.37 "Hg (Dec 14, 2:00 AM)
Low34 °F (Dec 14, 10:00 PM)67% (Dec 7, 3:00 PM)29.32 "Hg (Dec 12, 2:00 PM)
Average42 °F86%29.91 "Hg
* Reported Dec 7 7:00 AM — Dec 22 7:00 AM, Bramsche, Weather by CustomWeather, © 2014

Note: Actual official high and low records may vary slightly from our data, if they occured in-between our weather recording intervals... More about our weather records

Advertising

Bramsche weather history for previous 24 hours

 ConditionsComfort  
Time TempWeatherWind HumidityBarometerVisibility
7:00 AM
Dec 22
48 °FRain. Low clouds.10 mph92%29.98 "Hg5 mi
6:00 AM48 °FRain. Low clouds.10 mph91%30.00 "Hg6 mi
5:00 AM48 °FOvercast.10 mph87%30.01 "Hg6 mi
4:00 AM48 °FRain. Low clouds.10 mph90%30.03 "Hg6 mi
3:00 AM47 °FLow clouds.10 mph89%30.05 "Hg9 mi
2:00 AM47 °FLight rain. Passing clouds.12 mph89%30.05 "Hg2 mi
1:00 AM47 °FOvercast.12 mph86%30.07 "Hg12 mi
12:00 AM47 °FLow clouds.13 mph86%30.09 "Hg12 mi
11:00 PM
Dec 21
47 °FLow clouds.10 mph88%30.10 "Hg12 mi
10:00 PM47 °FOvercast.9 mph82%30.12 "Hg16 mi
9:00 PM47 °FOvercast.9 mph83%30.15 "Hg16 mi
8:00 PM46 °FOvercast.8 mph80%30.16 "Hg12 mi
7:00 PM46 °FOvercast.10 mph81%30.17 "Hg9 mi
6:00 PM46 °FOvercast.8 mph81%30.18 "Hg9 mi
5:00 PM45 °FOvercast.8 mph84%30.20 "Hg9 mi
4:00 PM45 °FOvercast.7 mph83%30.21 "Hg12 mi
3:00 PM44 °FOvercast.7 mph81%30.23 "Hg12 mi
2:00 PM44 °FOvercast.6 mph81%30.26 "Hg12 mi
1:00 PM44 °FOvercast.6 mph83%30.28 "Hg6 mi
12:00 PM43 °FFog.7 mph87%30.31 "Hg4 mi
11:00 AM43 °FFog.6 mph86%30.32 "Hg4 mi
10:00 AM42 °FFog.5 mph90%30.34 "Hg4 mi
9:00 AM40 °FLow clouds.5 mph90%30.33 "Hg5 mi
8:00 AM40 °FPassing clouds.5 mph91%30.34 "Hg9 mi
Weather by CustomWeather, © 2014

See weather overviewHow to use our weather pages